EHI
13 17 20 18 14 12 10 9 7 5 4 4 5 5 4 2 0 0 0 0 0 0 0 0 0 0 0 0 0 0 0 0 0 0 0 0 0 0 0 0 0 0 0
15 17 20 19 14 12 10 9 7 5 4 4 5 6 5 3 1 0 0 0 0 0 0 0 0 0 0 0 0 0 0 0 0 0 0 0 0 0 0 0 0 0 0
16 16 18 19 15 12 11 10 8 6 3 2 3 5 6 4 2 1 0 0 0 0 0 0 0 0 0 0 0 0 0 0 0 0 0 0 0 0 0 0 0 0 0
13 13 16 19 16 12 12 11 10 7 3 1 1 3 4 4 3 2 1 0 0 0 0 0 0 0 0 0 1 0 0 0 0 0 0 0 0 0 0 0 0 0 0
9 11 15 18 17 13 11 10 9 7 4 1 1 1 2 3 3 2 2 1 0 0 0 0 0 0 0 0 0 0 0 0 0 0 0 0 0 0 0 0 0 0 0
8 10 13 16 16 14 11 9 8 7 4 3 2 1 0 1 1 1 1 1 1 1 0 0 0 0 0 0 0 0 0 0 0 0 0 0 0 0 0 0 0 0 0
7 8 11 14 16 14 11 8 6 5 3 2 2 2 1 0 0 1 1 2 3 2 1 1 1 0 0 0 0 0 0 0 0 0 0 0 0 0 0 0 0 0 0
7 7 9 12 14 13 10 7 4 3 1 1 1 3 3 1 1 2 2 2 3 3 2 2 2 1 0 0 0 0 0 0 0 0 0 0 0 0 0 0 0 0 0
6 6 8 10 10 9 8 5 2 1 0 0 1 2 2 1 1 2 3 2 4 4 3 2 2 1 0 0 0 0 0 0 0 0 0 0 0 0 0 0 0 0 0
6 7 8 8 7 6 4 2 1 0 0 0 0 1 1 0 0 1 2 2 4 5 3 2 1 1 0 0 0 0 0 0 0 0 0 0 0 0 0 0 0 0 0
6 8 8 6 6 4 2 1 0 0 0 0 0 0 0 0 0 0 1 1 3 3 2 1 0 0 0 0 0 0 0 0 0 0 0 0 0 0 0 0 0 0 0
6 7 7 6 4 3 1 0 0 0 0 0 0 0 0 0 0 0 0 1 1 1 0 0 0 0 0 0 0 0 0 0 0 0 0 0 0 0 0 0 0 0 0
4 5 6 5 4 3 2 1 0 0 0 0 0 0 0 1 1 1 1 0 0 0 0 0 0 0 0 0 0 0 0 0 0 0 0 0 0 0 0 0 0 0 0
3 4 4 5 4 4 3 2 1 1 0 0 0 0 1 3 3 2 2 1 0 0 0 0 1 1 0 0 0 0 0 0 0 0 0 1 1 1 0 0 0 0 0
1 2 2 3 4 5 5 3 2 2 2 1 0 0 1 3 5 4 3 2 1 1 1 1 1 1 0 0 0 0 0 0 0 0 0 1 2 2 1 0 0 0 0
1 1 1 1 2 4 5 4 3 3 3 2 1 0 0 2 5 5 4 3 3 2 2 2 1 1 0 0 0 0 0 0 0 0 0 0 1 2 1 0 0 0 0
1 2 2 1 2 3 4 4 3 3 3 2 1 0 0 1 4 5 4 4 3 3 3 3 2 1 1 0 0 0 0 0 0 0 0 0 0 1 1 0 0 0 0
1 2 3 3 3 3 4 3 3 3 2 1 0 0 0 1 2 3 2 3 3 3 3 3 3 2 1 0 0 0 0 0 0 0 0 0 0 0 0 0 0 0 0
1 2 3 3 3 3 3 3 2 2 2 1 0 0 0 0 1 1 1 2 3 3 3 3 3 2 1 0 0 0 0 0 0 0 0 0 0 0 0 0 0 0 0
0 1 1 2 3 3 2 2 1 1 2 2 0 0 0 0 0 0 1 2 2 2 1 2 2 1 0 0 0 0 0 0 0 0 0 0 0 0 0 0 0 0 0
0 0 0 1 2 1 1 1 0 1 1 1 0 0 0 0 0 0 0 1 1 1 1 1 1 0 0 0 0 0 0 0 0 0 0 0 0 0 0 0 0 0 0
0 0 0 0 0 1 1 0 0 0 0 0 0 0 0 0 0 0 0 0 1 1 0 0 0 0 0 0 0 0 0 0 0 0 0 0 0 0 0 0 0 0 0
0 0 0 0 0 0 0 0 0 0 0 0 0 0 0 0 0 0 0 0 0 0 0 0 0 0 0 0 0 0 0 0 0 0 0 0 0 0 0 0 0 0 0
0 0 0 0 0 0 0 0 0 0 0 0 0 0 0 0 0 0 0 0 0 0 0 0 0 0 0 0 0 0 0 0 0 0 0 0 0 0 0 0 0 0 0
0 0 0 0 0 0 0 0 0 0 0 0 0 0 0 0 0 0 0 0 0 0 0 0 0 0 0 0 0 0 0 0 0 0 0 0 0 0 0 0 0 0 0
0 0 0 0 0 0 0 0 0 0 0 0 0 0 0 0 0 0 0 0 0 0 0 0 0 0 0 0 0 0 0 0 0 0 0 0 0 0 0 0 0 0 0
Wind_Speed
7 9 9 8 8 7 7 8 8 8 8 8 8 8 8 8 8 8 8 9 8 8 9 9 9 10 10 10 10 10 11 11 11 11 10 10 10 11 11 10 10 8 12
8 10 10 8 8 7 7 7 7 7 7 7 7 8 8 8 8 8 8 8 8 8 9 9 9 9 9 10 10 10 10 9 9 8 8 7 9 10 10 10 10 7 11
9 10 9 8 8 8 7 7 7 7 7 7 7 7 7 7 7 7 7 8 9 8 8 9 9 9 9 9 9 9 8 7 6 4 4 4 6 9 9 10 10 10 10
8 8 8 8 8 7 7 6 6 7 7 6 6 7 7 7 7 7 7 7 8 8 8 8 9 8 8 8 8 8 6 4 2 0 1 4 5 9 9 9 9 9 9
6 7 8 8 8 7 7 6 6 6 6 6 6 6 6 6 7 7 7 7 7 7 8 8 8 8 7 8 7 6 4 1 2 2 3 6 5 8 9 9 8 8 8
6 7 8 8 7 7 6 6 5 5 5 5 5 6 6 6 6 6 6 7 7 7 8 8 7 7 7 7 6 5 2 1 3 0 4 6 5 8 9 9 8 7 7
5 6 7 7 7 7 6 6 5 5 5 5 6 6 6 6 6 6 7 7 7 7 8 8 7 7 6 6 5 4 1 2 2 1 4 5 5 8 8 8 7 7 7
4 5 6 7 7 6 6 6 5 5 4 5 5 5 6 6 6 6 7 7 7 7 7 7 7 7 6 6 4 2 0 3 2 3 5 5 7 8 7 6 6 6 6
4 4 5 5 6 6 5 5 5 5 4 4 5 5 4 5 5 6 6 7 7 7 7 6 7 6 6 5 4 2 2 3 3 1 5 5 7 7 6 6 6 5 6
2 3 4 4 5 5 4 5 5 5 5 4 5 5 4 5 5 6 6 6 7 7 6 6 6 6 6 5 4 3 3 3 1 2 3 5 7 7 6 5 5 5 5
1 2 3 4 4 4 4 4 4 5 5 5 4 6 5 4 4 4 5 6 7 6 6 6 6 6 5 5 4 4 2 1 1 2 3 7 7 6 5 5 5 5 5
2 2 3 3 3 4 4 4 3 4 4 4 4 5 4 3 3 4 6 7 7 7 6 6 6 6 4 3 3 4 1 2 1 3 4 8 7 6 5 5 5 5 5
2 1 2 3 3 4 3 3 2 2 3 3 4 4 3 3 3 3 3 4 4 5 4 5 4 3 3 2 2 2 2 1 1 3 4 7 6 5 5 4 4 4 4
2 1 2 2 3 3 3 3 3 2 2 2 3 3 3 2 2 3 2 3 3 2 2 2 2 3 2 3 3 3 3 1 2 3 4 7 6 5 4 4 4 3 3
2 1 1 2 3 3 3 3 3 3 3 3 3 3 3 2 3 3 2 2 2 2 2 2 2 2 2 2 2 2 2 1 2 3 4 7 7 5 4 3 3 3 2
2 2 1 2 3 3 3 3 3 3 3 3 2 3 3 3 2 3 3 3 2 2 2 2 2 2 2 1 1 1 1 1 2 4 4 5 6 5 4 3 3 2 2
2 2 2 2 3 3 3 3 3 3 3 3 2 3 3 3 3 3 3 3 3 2 2 2 2 1 2 2 2 1 1 1 1 3 4 3 3 4 4 3 2 2 1
2 2 2 2 3 3 2 2 2 2 3 3 2 2 3 3 3 3 3 3 2 2 2 2 2 1 1 1 1 0 0 1 1 2 3 3 3 3 3 3 3 2 1
3 3 3 2 2 3 3 1 2 2 2 2 2 2 2 3 3 3 3 3 3 2 2 2 1 2 2 1 1 1 1 1 1 1 2 3 3 3 2 3 3 2 2
3 3 3 2 2 2 3 2 1 2 2 2 2 2 3 3 3 3 3 3 3 3 2 2 2 1 1 1 1 1 1 1 1 1 1 2 2 3 2 2 2 2 2
3 3 3 2 2 2 2 3 2 2 3 3 2 3 3 3 3 3 3 4 3 3 3 4 2 2 1 1 2 1 1 0 1 1 1 2 2 2 2 2 2 1 1
4 3 3 2 2 3 3 2 2 2 2 2 3 3 3 3 3 3 4 3 3 3 3 3 3 2 1 1 2 2 1 1 1 1 1 2 2 1 1 2 1 2 2
4 4 3 3 3 2 2 2 2 2 1 1 2 2 2 3 3 2 3 4 3 3 3 3 3 3 2 1 1 2 2 2 1 1 1 2 2 1 1 1 1 1 2
4 4 4 4 3 3 3 4 4 3 2 2 2 2 3 3 3 2 3 4 3 3 3 3 3 2 3 2 1 0 1 3 2 0 1 1 1 1 1 1 1 1 2
4 4 4 4 4 3 3 4 4 3 1 2 3 4 3 3 2 2 2 2 3 2 3 3 3 2 2 2 2 1 0 1 1 2 1 1 0 0 1 1 1 0 1
4 4 4 4 4 4 3 4 4 5 3 4 3 3 3 2 2 2 2 2 2 2 3 3 2 3 2 2 1 1 2 2 2 2 2 2 1 1 0 1 1 1 1
Wind_Direction
111 120 120 115 114 118 122 123 122 121 119 119 120 123 124 127 124 120 117 116 115 111 108 105 102 101 99 96 94 91 89 86 86 86 83 81 80 79 75 72 71 75 77
116 123 119 116 113 114 121 124 122 122 122 122 122 125 128 132 134 131 128 124 120 116 111 108 103 104 103 99 96 96 95 94 95 95 91 84 81 79 75 70 73 81 77
114 124 123 116 117 114 114 120 122 123 124 125 124 125 128 133 139 138 135 130 123 118 115 110 105 104 107 105 102 100 99 101 108 111 113 110 93 84 81 79 80 81 79
115 125 124 119 120 118 113 114 124 127 126 128 130 129 129 133 139 140 138 134 128 124 118 111 107 107 111 110 108 107 109 112 115 216 136 107 96 87 84 84 84 82 81
112 120 124 124 125 123 120 117 121 129 132 129 132 134 134 133 136 137 136 131 129 126 119 115 111 112 114 112 112 114 118 107 304 295 79 90 86 88 83 81 80 80 80
113 117 127 132 132 128 125 126 127 133 140 138 136 138 138 137 136 137 134 131 127 126 125 121 118 120 119 119 119 121 123 337 310 324 90 91 88 90 85 78 76 75 77
113 118 132 136 141 139 138 136 134 132 140 144 142 142 145 143 141 137 133 134 133 130 131 129 127 127 126 125 127 130 136 318 290 73 87 90 96 95 86 79 76 75 74
106 117 134 138 142 146 149 148 146 137 141 151 150 146 149 148 144 142 139 139 140 136 137 137 134 133 132 131 135 146 264 314 320 87 94 91 101 97 89 82 80 76 73
104 119 132 144 146 145 147 155 155 148 145 156 158 154 145 146 148 148 144 144 143 140 139 140 141 139 141 142 148 174 266 307 324 71 101 99 101 98 94 88 83 78 72
110 123 139 155 153 152 149 158 161 155 154 161 166 163 157 153 153 152 147 147 144 142 143 143 150 148 148 152 163 198 256 300 291 73 93 108 108 101 96 94 90 80 73
131 135 149 162 160 156 159 166 162 161 166 170 172 173 170 175 163 157 152 151 151 151 149 152 159 156 153 167 182 208 239 253 174 94 95 113 115 110 98 91 85 84 80
200 175 160 161 159 156 165 164 174 175 174 182 175 179 183 164 161 160 158 163 164 164 163 167 170 168 165 172 192 201 225 243 154 103 106 116 117 114 106 96 89 81 77
209 203 174 166 162 162 168 171 176 173 178 182 174 179 167 161 162 155 157 166 172 169 171 172 168 176 173 165 162 182 226 228 131 106 115 119 116 113 107 101 98 87 80
207 212 190 169 164 174 178 171 172 173 174 171 174 176 166 158 158 159 158 161 162 165 164 163 167 174 175 161 165 185 212 198 130 116 125 124 119 117 113 106 102 94 87
199 205 207 187 181 182 186 181 178 174 172 167 171 176 166 159 161 158 153 153 156 156 159 160 164 171 169 153 165 182 190 169 129 121 125 129 123 117 116 117 111 105 97
191 192 211 203 191 184 192 190 179 168 165 164 171 170 164 161 158 160 153 150 152 158 159 157 163 157 156 148 142 173 167 150 127 125 133 133 131 128 125 133 129 119 101
181 176 185 198 190 182 197 201 177 169 163 159 168 167 162 162 163 160 153 153 156 155 150 146 147 127 136 137 143 151 114 132 136 132 136 140 143 140 134 141 145 133 110
176 183 189 199 185 180 179 199 171 169 163 156 158 163 161 161 161 156 147 149 144 138 137 139 146 136 135 132 132 142 121 130 141 138 136 139 144 144 142 137 139 138 128
180 177 173 178 182 181 169 172 169 166 158 149 146 157 158 158 154 147 146 147 144 133 132 143 135 137 139 132 128 125 107 121 139 121 135 138 138 135 140 141 140 143 126
172 161 164 173 178 180 172 155 151 154 157 150 148 158 161 164 156 147 147 147 143 141 145 139 135 117 126 134 117 103 84 124 141 132 139 132 138 141 143 142 149 156 142
147 144 152 155 165 155 167 160 163 171 166 156 153 160 162 159 153 152 150 147 146 149 155 142 136 132 106 92 95 85 13 35 155 160 147 139 143 149 151 149 148 139 138
153 152 149 144 163 167 178 174 174 166 168 161 157 159 153 152 157 154 147 146 145 141 142 141 132 135 115 110 127 126 107 2 320 191 147 143 141 137 150 143 142 137 131
150 155 161 158 160 161 166 152 145 125 126 149 151 154 147 135 132 138 143 144 152 152 155 150 141 142 154 157 127 135 140 184 246 276 183 151 154 140 149 151 138 127 121
158 157 157 150 142 149 151 145 145 147 157 172 154 139 123 116 118 126 135 140 148 148 151 156 148 146 151 164 164 112 137 139 143 175 299 189 159 136 138 134 117 123 110
148 153 155 143 135 129 141 142 145 135 131 121 121 124 125 116 107 108 114 132 140 139 144 148 156 155 157 161 159 163 167 122 127 147 200 244 346 202 149 147 140 113 110
147 147 146 139 139 135 140 149 145 140 137 134 130 134 125 115 106 101 109 103 114 129 141 149 152 152 160 153 152 151 154 161 173 165 180 195 212 250 223 157 159 173 143